| time (UTC) | temp F | wind direction | speed MPH | gust MPH | rain 1hr in | rain 24hr in | rain mn in | humidity % | barometer mb |
| 20260508141017 | 63 | 83 | 2.0 | 6.0 | 0.00 | 0.11 | 0.11 | 84 | 1014.3 |
| 20260508140518 | 63 | 80 | 3.0 | 5.0 | 0.00 | 0.11 | 0.11 | 84 | 1014.5 |
| 20260508140041 | 63 | 80 | 1.0 | 4.0 | 0.00 | 0.11 | 0.11 | 86 | 1014.6 |
| 20260508135518 | 63 | 0 | 1.0 | 8.0 | 0.00 | 0.11 | 0.11 | 84 | 1014.7 |
| 20260508135017 | 63 | 71 | 2.0 | 8.0 | 0.00 | 0.11 | 0.11 | 84 | 1014.8 |
| 20260508134544 | 63 | 0 | 0.0 | 4.0 | 0.00 | 0.11 | 0.11 | 85 | 1014.8 |
| 20260508134017 | 63 | 0 | 0.0 | 4.0 | 0.00 | 0.11 | 0.11 | 88 | 1014.7 |
| 20260508133523 | 62 | 74 | 0.0 | 5.0 | 0.00 | 0.11 | 0.11 | 88 | 1014.6 |
| 20260508133045 | 62 | 73 | 1.0 | 6.0 | 0.00 | 0.11 | 0.11 | 88 | 1014.5 |
| 20260508132517 | 61 | 72 | 3.0 | 7.0 | 0.00 | 0.11 | 0.11 | 89 | 1014.6 |
| 20260508132017 | 61 | 0 | 2.0 | 8.0 | 0.00 | 0.11 | 0.11 | 90 | 1014.5 |
| 20260508131543 | 61 | 63 | 2.0 | 8.0 | 0.00 | 0.11 | 0.11 | 90 | 1014.5 |
| 20260508131018 | 60 | 72 | 3.0 | 8.0 | 0.00 | 0.11 | 0.11 | 91 | 1014.5 |
| 20260508130517 | 60 | 100 | 1.0 | 3.0 | 0.00 | 0.11 | 0.11 | 92 | 1014.3 |
| 20260508130040 | 60 | 0 | 0.0 | 3.0 | 0.00 | 0.11 | 0.11 | 92 | 1014.4 |
| 20260508125518 | 60 | 0 | 0.0 | 7.0 | 0.00 | 0.11 | 0.11 | 92 | 1014.5 |
| 20260508125019 | 60 | 0 | 1.0 | 7.0 | 0.00 | 0.11 | 0.11 | 92 | 1014.4 |
| 20260508124540 | 60 | 81 | 2.0 | 6.0 | 0.00 | 0.11 | 0.11 | 92 | 1014.1 |
| 20260508124018 | 60 | 163 | 0.0 | 6.0 | 0.00 | 0.11 | 0.11 | 92 | 1014.4 |
| 20260508123517 | 60 | 95 | 2.0 | 6.0 | 0.00 | 0.11 | 0.11 | 91 | 1014.2 |
| 20260508123037 | 60 | 0 | 0.0 | 7.0 | 0.00 | 0.11 | 0.11 | 92 | 1014.3 |
| 20260508122517 | 59 | 0 | 2.0 | 7.0 | 0.00 | 0.11 | 0.11 | 92 | 1014.3 |
| 20260508122017 | 59 | 82 | 2.0 | 5.0 | 0.00 | 0.11 | 0.11 | 92 | 1014.2 |
| 20260508121541 | 59 | 75 | 2.0 | 5.0 | 0.00 | 0.11 | 0.11 | 92 | 1014.3 |
| 20260508121019 | 59 | 73 | 1.0 | 8.0 | 0.00 | 0.11 | 0.11 | 91 | 1014.4 |
| 20260508120517 | 59 | 74 | 2.0 | 8.0 | 0.00 | 0.11 | 0.11 | 91 | 1014.5 |
| 20260508120039 | 59 | 82 | 4.0 | 8.0 | 0.00 | 0.11 | 0.11 | 91 | 1014.4 |
| 20260508115518 | 59 | 74 | 0.0 | 4.0 | 0.00 | 0.11 | 0.11 | 92 | 1014.6 |
| 20260508115018 | 59 | 73 | 0.0 | 1.0 | 0.04 | 0.11 | 0.11 | 91 | 1014.7 |
| 20260508114534 | 59 | 0 | 0.0 | 0.0 | 0.11 | 0.11 | 0.11 | 91 | 1014.8 |
| 20260508114021 | 59 | 0 | 0.0 | 0.0 | 0.11 | 0.11 | 0.11 | 91 | 1014.7 |
| 20260508113519 | 59 | 0 | 0.0 | 0.0 | 0.11 | 0.11 | 0.11 | 91 | 1014.8 |
| 20260508113051 | 59 | 0 | 0.0 | 0.0 | 0.11 | 0.11 | 0.11 | 91 | 1014.8 |
| 20260508112517 | 59 | 0 | 0.0 | 0.0 | 0.11 | 0.11 | 0.11 | 90 | 1014.5 |
| 20260508112019 | 59 | 0 | 0.0 | 0.0 | 0.11 | 0.11 | 0.11 | 90 | 1014.3 |
| 20260508111540 | 59 | 0 | 0.0 | 1.0 | 0.11 | 0.11 | 0.11 | 90 | 1014.2 |
| 20260508111017 | 59 | 0 | 0.0 | 8.0 | 0.11 | 0.11 | 0.11 | 89 | 1014.4 |
| 20260508110517 | 59 | 74 | 0.0 | 8.0 | 0.11 | 0.11 | 0.11 | 89 | 1014.3 |
| 20260508110053 | 59 | 61 | 3.0 | 8.0 | 0.11 | 0.11 | 0.11 | 88 | 1013.9 |
| 20260508105519 | 60 | 97 | 1.0 | 4.0 | 0.10 | 0.10 | 0.10 | 87 | 1014.0 |
| 20260508105019 | 60 | 130 | 0.0 | 3.0 | 0.07 | 0.07 | 0.07 | 86 | 1014.4 |
| 20260508104536 | 60 | 130 | 1.0 | 3.0 | 0.00 | 0.00 | 0.00 | 86 | 1014.5 |
| 20260508104018 | 60 | 0 | 0.0 | 3.0 | 0.00 | 0.00 | 0.00 | 86 | 1014.0 |
| 20260508103518 | 60 | 128 | 1.0 | 3.0 | 0.00 | 0.00 | 0.00 | 85 | 1013.9 |
| 20260508103038 | 60 | 0 | 0.0 | 3.0 | 0.00 | 0.00 | 0.00 | 85 | 1013.9 |
| 20260508102518 | 60 | 0 | 0.0 | 3.0 | 0.00 | 0.00 | 0.00 | 85 | 1014.0 |
| 20260508102018 | 60 | 144 | 0.0 | 5.0 | 0.00 | 0.00 | 0.00 | 85 | 1014.1 |
| 20260508101550 | 60 | 0 | 1.0 | 5.0 | 0.00 | 0.00 | 0.00 | 85 | 1014.2 |
| 20260508101017 | 60 | 0 | 0.0 | 0.0 | 0.00 | 0.00 | 0.00 | 85 | 1014.0 |
| 20260508100517 | 60 | 0 | 0.0 | 0.0 | 0.00 | 0.00 | 0.00 | 85 | 1013.9 |
| 20260508100041 | 60 | 0 | 0.0 | 0.0 | 0.00 | 0.00 | 0.00 | 85 | 1014.0 |
| 20260508095517 | 60 | 0 | 0.0 | 0.0 | 0.00 | 0.00 | 0.00 | 85 | 1014.1 |
| 20260508095018 | 60 | 0 | 0.0 | 0.0 | 0.00 | 0.00 | 0.00 | 84 | 1014.3 |
| 20260508094550 | 61 | 0 | 0.0 | 0.0 | 0.00 | 0.00 | 0.00 | 84 | 1014.3 |
| 20260508094019 | 61 | 0 | 0.0 | 0.0 | 0.00 | 0.00 | 0.00 | 83 | 1014.1 |
| 20260508093519 | 60 | 0 | 0.0 | 0.0 | 0.00 | 0.00 | 0.00 | 84 | 1013.8 |
| 20260508093050 | 60 | 0 | 0.0 | 0.0 | 0.00 | 0.00 | 0.00 | 84 | 1013.7 |
| 20260508092517 | 60 | 0 | 0.0 | 0.0 | 0.00 | 0.00 | 0.00 | 85 | 1013.6 |
| 20260508092017 | 60 | 0 | 0.0 | 0.0 | 0.00 | 0.00 | 0.00 | 85 | 1013.8 |
| 20260508091534 | 60 | 0 | 0.0 | 3.0 | 0.00 | 0.00 | 0.00 | 85 | 1013.5 |
| 20260508091019 | 60 | 0 | 0.0 | 3.0 | 0.00 | 0.00 | 0.00 | 85 | 1013.5 |
| 20260508090518 | 60 | 0 | 0.0 | 3.0 | 0.00 | 0.00 | 0.00 | 85 | 1013.7 |
| 20260508090053 | 60 | 0 | 0.0 | 2.0 | 0.00 | 0.00 | 0.00 | 85 | 1013.8 |
| 20260508085518 | 60 | 0 | 0.0 | 4.0 | 0.00 | 0.00 | 0.00 | 85 | 1013.9 |
| 20260508085017 | 60 | 0 | 0.0 | 4.0 | 0.00 | 0.00 | 0.00 | 85 | 1013.8 |
| 20260508084534 | 60 | 115 | 0.0 | 4.0 | 0.00 | 0.00 | 0.00 | 84 | 1013.7 |
| 20260508084018 | 60 | 0 | 0.0 | 0.0 | 0.00 | 0.00 | 0.00 | 84 | 1014.1 |
| 20260508083517 | 60 | 0 | 0.0 | 0.0 | 0.00 | 0.00 | 0.00 | 83 | 1014.1 |
| 20260508083031 | 60 | 0 | 0.0 | 0.0 | 0.00 | 0.00 | 0.00 | 83 | 1014.2 |
| 20260508082518 | 60 | 0 | 0.0 | 3.0 | 0.00 | 0.00 | 0.00 | 82 | 1014.3 |
| 20260508082018 | 60 | 0 | 0.0 | 3.0 | 0.00 | 0.00 | 0.00 | 81 | 1014.1 |
| 20260508081536 | 60 | 142 | 0.0 | 3.0 | 0.00 | 0.00 | 0.00 | 81 | 1014.2 |
| 20260508081019 | 60 | 0 | 1.0 | 3.0 | 0.00 | 0.00 | 0.00 | 81 | 1014.3 |
| 20260508080519 | 61 | 143 | 1.0 | 7.0 | 0.00 | 0.00 | 0.00 | 80 | 1014.5 |
| 20260508080039 | 61 | 0 | 0.0 | 10.0 | 0.00 | 0.00 | 0.00 | 79 | 1014.5 |
| 20260508075518 | 60 | 69 | 4.0 | 10.0 | 0.00 | 0.00 | 0.00 | 80 | 1014.1 |
| 20260508075023 | 60 | 0 | 0.0 | 3.0 | 0.00 | 0.00 | 0.00 | 82 | 1014.4 |
| 20260508074540 | 60 | 0 | 0.0 | 3.0 | 0.00 | 0.00 | 0.00 | 83 | 1014.8 |
| 20260508074018 | 60 | 0 | 0.0 | 1.0 | 0.00 | 0.00 | 0.00 | 83 | 1015.1 |
| 20260508073519 | 59 | 0 | 0.0 | 0.0 | 0.00 | 0.00 | 0.00 | 85 | 1014.8 |
| 20260508073035 | 59 | 0 | 0.0 | 0.0 | 0.00 | 0.00 | 0.00 | 85 | 1014.8 |
| 20260508072518 | 59 | 0 | 0.0 | 0.0 | 0.00 | 0.00 | 0.00 | 85 | 1015.0 |
| 20260508072020 | 59 | 0 | 0.0 | 0.0 | 0.00 | 0.00 | 0.00 | 84 | 1015.5 |
| 20260508071535 | 59 | 0 | 0.0 | 0.0 | 0.00 | 0.00 | 0.00 | 85 | 1015.7 |
| 20260508071019 | 59 | 0 | 0.0 | 0.0 | 0.00 | 0.00 | 0.00 | 84 | 1015.9 |
| 20260508070518 | 59 | 0 | 0.0 | 0.0 | 0.00 | 0.00 | 0.00 | 84 | 1016.2 |
| 20260508070034 | 59 | 0 | 0.0 | 0.0 | 0.00 | 0.00 | 0.00 | 84 | 1015.7 |
| 20260508065518 | 58 | 0 | 0.0 | 0.0 | 0.00 | 0.00 | 0.00 | 85 | 1015.5 |
| 20260508065018 | 58 | 0 | 0.0 | 0.0 | 0.00 | 0.00 | 0.00 | 85 | 1015.3 |
| 20260508064536 | 58 | 0 | 0.0 | 0.0 | 0.00 | 0.00 | 0.00 | 85 | 1015.3 |
| 20260508064019 | 58 | 0 | 0.0 | 0.0 | 0.00 | 0.00 | 0.00 | 85 | 1015.4 |
| 20260508063524 | 58 | 0 | 0.0 | 0.0 | 0.00 | 0.00 | 0.00 | 85 | 1015.5 |
| 20260508063036 | 58 | 0 | 0.0 | 0.0 | 0.00 | 0.00 | 0.00 | 84 | 1015.6 |
| 20260508062518 | 58 | 0 | 0.0 | 0.0 | 0.00 | 0.00 | 0.00 | 84 | 1015.5 |
| 20260508062019 | 58 | 0 | 0.0 | 0.0 | 0.00 | 0.00 | 0.00 | 84 | 1015.6 |
| 20260508061535 | 58 | 0 | 0.0 | 0.0 | 0.00 | 0.00 | 0.00 | 84 | 1015.8 |
| 20260508061019 | 58 | 0 | 0.0 | 0.0 | 0.00 | 0.00 | 0.00 | 84 | 1015.7 |
| 20260508060522 | 58 | 0 | 0.0 | 0.0 | 0.00 | 0.00 | 0.00 | 84 | 1015.8 |
| 20260508060040 | 58 | 0 | 0.0 | 0.0 | 0.00 | 0.00 | 0.00 | 84 | 1015.8 |
| 20260508055518 | 58 | 0 | 0.0 | 0.0 | 0.00 | 0.00 | 0.00 | 84 | 1016.0 |
| 20260508055023 | 58 | 0 | 0.0 | 0.0 | 0.00 | 0.00 | 0.00 | 84 | 1015.8 |
| 20260508054603 | 58 | 0 | 0.0 | 0.0 | 0.00 | 0.00 | 0.00 | 84 | 1015.8 |
| 20260508054020 | 58 | 0 | 0.0 | 0.0 | 0.00 | 0.00 | 0.00 | 83 | 1015.8 |
| 20260508053518 | 58 | 0 | 0.0 | 0.0 | 0.00 | 0.00 | 0.00 | 83 | 1015.7 |
| 20260508053041 | 59 | 0 | 0.0 | 0.0 | 0.00 | 0.00 | 0.00 | 83 | 1015.7 |
| 20260508052519 | 59 | 0 | 0.0 | 0.0 | 0.00 | 0.00 | 0.00 | 82 | 1015.7 |
| 20260508052018 | 59 | 0 | 0.0 | 0.0 | 0.00 | 0.00 | 0.00 | 82 | 1015.6 |
| 20260508051537 | 59 | 0 | 0.0 | 0.0 | 0.00 | 0.00 | 0.00 | 82 | 1015.6 |
| 20260508051022 | 60 | 0 | 0.0 | 0.0 | 0.00 | 0.00 | 0.00 | 81 | 1015.7 |
| 20260508050519 | 60 | 0 | 0.0 | 0.0 | 0.00 | 0.00 | 0.00 | 80 | 1015.6 |
| 20260508050038 | 60 | 0 | 0.0 | 0.0 | 0.00 | 0.00 | 0.00 | 80 | 1015.6 |
| 20260508045518 | 60 | 0 | 0.0 | 0.0 | 0.00 | 0.00 | 0.00 | 80 | 1015.6 |
| 20260508045018 | 60 | 0 | 0.0 | 0.0 | 0.00 | 0.00 | 0.00 | 81 | 1015.5 |
| 20260508044554 | 60 | 0 | 0.0 | 0.0 | 0.00 | 0.00 | 0.00 | 80 | 1015.7 |
| 20260508044021 | 60 | 0 | 0.0 | 0.0 | 0.00 | 0.00 | 0.00 | 80 | 1015.8 |
| 20260508043522 | 60 | 0 | 0.0 | 0.0 | 0.00 | 0.00 | 0.00 | 80 | 1015.8 |
| 20260508043043 | 60 | 0 | 0.0 | 0.0 | 0.00 | 0.00 | 0.00 | 79 | 1015.9 |
| 20260508042518 | 60 | 0 | 0.0 | 0.0 | 0.00 | 0.00 | 0.00 | 79 | 1015.7 |
| 20260508042017 | 60 | 0 | 0.0 | 0.0 | 0.00 | 0.00 | 0.00 | 79 | 1015.7 |
| 20260508041549 | 60 | 0 | 0.0 | 0.0 | 0.00 | 0.00 | 0.00 | 78 | 1015.7 |
| 20260508041020 | 60 | 0 | 0.0 | 0.0 | 0.00 | 0.00 | 0.00 | 78 | 1015.7 |
| 20260508040518 | 61 | 0 | 0.0 | 0.0 | 0.00 | 0.00 | 0.00 | 78 | 1015.7 |
| 20260508040039 | 61 | 0 | 0.0 | 0.0 | 0.00 | 0.00 | 0.00 | 77 | 1015.6 |
| 20260508035521 | 61 | 0 | 0.0 | 0.0 | 0.00 | 0.00 | 0.00 | 77 | 1015.7 |
| 20260508035022 | 61 | 0 | 0.0 | 0.0 | 0.00 | 0.00 | 0.00 | 77 | 1015.7 |
| 20260508034539 | 61 | 0 | 0.0 | 0.0 | 0.00 | 0.00 | 0.00 | 76 | 1015.7 |
| 20260508034019 | 61 | 0 | 0.0 | 0.0 | 0.00 | 0.00 | 0.00 | 76 | 1015.6 |
| 20260508033520 | 61 | 0 | 0.0 | 0.0 | 0.00 | 0.00 | 0.00 | 75 | 1015.5 |
| 20260508033041 | 61 | 0 | 0.0 | 0.0 | 0.00 | 0.00 | 0.00 | 75 | 1015.6 |
| 20260508032521 | 61 | 0 | 0.0 | 0.0 | 0.00 | 0.00 | 0.00 | 75 | 1015.6 |
| 20260508032018 | 61 | 0 | 0.0 | 0.0 | 0.00 | 0.00 | 0.00 | 75 | 1015.6 |
| 20260508031554 | 61 | 0 | 0.0 | 0.0 | 0.00 | 0.00 | 0.00 | 75 | 1015.5 |
| 20260508031019 | 62 | 0 | 0.0 | 0.0 | 0.00 | 0.00 | 0.00 | 75 | 1015.4 |
| 20260508030519 | 62 | 0 | 0.0 | 0.0 | 0.00 | 0.00 | 0.00 | 75 | 1015.5 |
| 20260508030054 | 62 | 0 | 0.0 | 0.0 | 0.00 | 0.00 | 0.00 | 75 | 1015.5 |
| 20260508025518 | 62 | 0 | 0.0 | 0.0 | 0.00 | 0.00 | 0.00 | 74 | 1015.1 |
| 20260508025019 | 62 | 0 | 0.0 | 0.0 | 0.00 | 0.00 | 0.00 | 74 | 1015.2 |
| 20260508024535 | 62 | 0 | 0.0 | 0.0 | 0.00 | 0.00 | 0.00 | 74 | 1015.1 |
| 20260508024019 | 63 | 0 | 0.0 | 0.0 | 0.00 | 0.00 | 0.00 | 73 | 1015.1 |
| 20260508023518 | 63 | 0 | 0.0 | 0.0 | 0.00 | 0.00 | 0.00 | 73 | 1015.0 |
| 20260508023042 | 63 | 0 | 0.0 | 0.0 | 0.00 | 0.00 | 0.00 | 73 | 1015.0 |
| 20260508022517 | 63 | 0 | 0.0 | 0.0 | 0.00 | 0.00 | 0.00 | 72 | 1015.0 |
| 20260508022018 | 64 | 0 | 0.0 | 0.0 | 0.00 | 0.00 | 0.00 | 72 | 1014.9 |
| 20260508021536 | 64 | 0 | 0.0 | 0.0 | 0.00 | 0.00 | 0.00 | 71 | 1014.9 |
| 20260508021017 | 64 | 0 | 0.0 | 0.0 | 0.00 | 0.00 | 0.00 | 71 | 1014.8 |
| 20260508020520 | 64 | 0 | 0.0 | 2.0 | 0.00 | 0.00 | 0.00 | 71 | 1014.8 |
| 20260508020031 | 64 | 0 | 0.0 | 2.0 | 0.00 | 0.00 | 0.00 | 70 | 1014.8 |
| 20260508015518 | 65 | 74 | 0.0 | 2.0 | 0.00 | 0.00 | 0.00 | 69 | 1014.6 |
| 20260508015015 | 65 | 0 | 0.0 | 4.0 | 0.00 | 0.00 | 0.00 | 69 | 1014.7 |
| 20260508014535 | 65 | 0 | 1.0 | 7.0 | 0.00 | 0.00 | 0.00 | 68 | 1014.6 |
| 20260508014014 | 65 | 0 | 3.0 | 7.0 | 0.00 | 0.00 | 0.00 | 66 | 1014.6 |
| 20260508013519 | 65 | 0 | 0.0 | 0.0 | 0.00 | 0.00 | 0.00 | 67 | 1014.6 |
| 20260508013037 | 65 | 0 | 0.0 | 0.0 | 0.00 | 0.00 | 0.00 | 67 | 1014.6 |
| 20260508012518 | 66 | 0 | 0.0 | 0.0 | 0.00 | 0.00 | 0.00 | 67 | 1014.5 |
| 20260508012018 | 66 | 0 | 0.0 | 0.0 | 0.00 | 0.00 | 0.00 | 67 | 1014.5 |
| 20260508011535 | 66 | 0 | 0.0 | 0.0 | 0.00 | 0.00 | 0.00 | 67 | 1014.7 |
| 20260508011017 | 66 | 0 | 0.0 | 0.0 | 0.00 | 0.00 | 0.00 | 66 | 1014.5 |
| 20260508010515 | 66 | 0 | 0.0 | 0.0 | 0.00 | 0.00 | 0.00 | 66 | 1014.7 |
| 20260508010040 | 67 | 0 | 0.0 | 0.0 | 0.00 | 0.00 | 0.00 | 65 | 1014.7 |
| 20260508005518 | 67 | 0 | 0.0 | 0.0 | 0.00 | 0.00 | 0.00 | 63 | 1014.7 |
| 20260508005016 | 67 | 0 | 0.0 | 0.0 | 0.00 | 0.00 | 0.00 | 64 | 1014.5 |
| 20260508004535 | 68 | 0 | 0.0 | 2.0 | 0.00 | 0.00 | 0.00 | 62 | 1014.4 |
| 20260508004016 | 68 | 0 | 0.0 | 2.0 | 0.00 | 0.00 | 0.00 | 61 | 1014.4 |
| 20260508003521 | 68 | 88 | 1.0 | 3.0 | 0.00 | 0.00 | 0.00 | 59 | 1014.3 |
| 20260508003036 | 69 | 0 | 0.0 | 3.0 | 0.00 | 0.00 | 0.00 | 60 | 1014.5 |
| 20260508002518 | 69 | 88 | 1.0 | 3.0 | 0.00 | 0.00 | 0.00 | 59 | 1014.5 |
| 20260508002018 | 69 | 89 | 0.0 | 3.0 | 0.00 | 0.00 | 0.00 | 60 | 1014.5 |
| 20260508001537 | 70 | 0 | 0.0 | 6.0 | 0.00 | 0.00 | 0.00 | 60 | 1014.7 |
| 20260508001018 | 70 | 89 | 0.0 | 7.0 | 0.00 | 0.00 | 0.00 | 58 | 1014.8 |
| 20260508000518 | 70 | 77 | 2.0 | 7.0 | 0.00 | 0.00 | 0.00 | 56 | 1014.8 |
| 20260508000034 | 71 | 98 | 0.0 | 3.0 | 0.00 | 0.00 | 0.00 | 56 | 1014.9 |
| 20260507235517 | 71 | 0 | 1.0 | 3.0 | 0.00 | 0.00 | 0.00 | 56 | 1015.0 |
| 20260507235018 | 71 | 100 | 0.0 | 3.0 | 0.00 | 0.00 | 0.00 | 54 | 1014.9 |
| 20260507234541 | 71 | 98 | 0.0 | 5.0 | 0.00 | 0.00 | 0.00 | 54 | 1014.9 |
| 20260507234019 | 71 | 0 | 0.0 | 5.0 | 0.00 | 0.00 | 0.00 | 53 | 1014.7 |
| 20260507233518 | 71 | 82 | 1.0 | 5.0 | 0.00 | 0.00 | 0.00 | 57 | 1014.8 |
| 20260507233037 | 71 | 82 | 1.0 | 9.0 | 0.00 | 0.00 | 0.00 | 54 | 1014.8 |
| 20260507232518 | 71 | 83 | 4.0 | 9.0 | 0.00 | 0.00 | 0.00 | 52 | 1015.0 |
| 20260507232022 | 71 | 58 | 2.0 | 8.0 | 0.00 | 0.00 | 0.00 | 55 | 1014.9 |
| 20260507231544 | 71 | 83 | 3.0 | 8.0 | 0.00 | 0.00 | 0.00 | 54 | 1014.9 |
| 20260507231018 | 71 | 73 | 2.0 | 8.0 | 0.00 | 0.00 | 0.00 | 54 | 1015.0 |
| 20260507230521 | 71 | 63 | 3.0 | 8.0 | 0.00 | 0.00 | 0.00 | 54 | 1015.0 |
| 20260507230039 | 71 | 150 | 1.0 | 8.0 | 0.00 | 0.00 | 0.00 | 56 | 1015.1 |
| 20260507225520 | 71 | 90 | 2.0 | 8.0 | 0.00 | 0.00 | 0.00 | 55 | 1015.0 |
| 20260507225018 | 72 | 71 | 0.0 | 8.0 | 0.00 | 0.00 | 0.00 | 55 | 1015.1 |
| 20260507224549 | 72 | 0 | 4.0 | 8.0 | 0.00 | 0.00 | 0.00 | 53 | 1015.2 |
| 20260507224018 | 72 | 45 | 2.0 | 7.0 | 0.00 | 0.00 | 0.00 | 54 | 1015.3 |
| 20260507223518 | 71 | 75 | 3.0 | 6.0 | 0.00 | 0.00 | 0.00 | 53 | 1015.3 |
| 20260507223034 | 71 | 0 | 1.0 | 4.0 | 0.00 | 0.00 | 0.00 | 57 | 1015.4 |
| 20260507222516 | 71 | 69 | 1.0 | 7.0 | 0.00 | 0.00 | 0.00 | 56 | 1015.3 |
| 20260507222015 | 71 | 0 | 1.0 | 8.0 | 0.00 | 0.00 | 0.00 | 57 | 1015.4 |
| 20260507221539 | 71 | 80 | 3.0 | 8.0 | 0.00 | 0.00 | 0.00 | 54 | 1015.5 |
| 20260507221017 | 71 | 0 | 1.0 | 6.0 | 0.00 | 0.00 | 0.00 | 57 | 1015.5 |
| 20260507220519 | 71 | 65 | 2.0 | 8.0 | 0.00 | 0.00 | 0.00 | 57 | 1015.5 |
| 20260507220038 | 71 | 50 | 3.0 | 8.0 | 0.00 | 0.00 | 0.00 | 56 | 1015.4 |
| 20260507215519 | 71 | 63 | 3.0 | 10.0 | 0.00 | 0.00 | 0.00 | 55 | 1015.4 |
| 20260507215018 | 71 | 64 | 4.0 | 10.0 | 0.00 | 0.00 | 0.00 | 54 | 1015.6 |
| 20260507214538 | 71 | 63 | 3.0 | 8.0 | 0.00 | 0.00 | 0.00 | 55 | 1015.6 |
| 20260507214015 | 71 | 65 | 3.0 | 6.0 | 0.00 | 0.00 | 0.00 | 54 | 1015.6 |
| 20260507213515 | 72 | 61 | 0.0 | 3.0 | 0.00 | 0.00 | 0.00 | 52 | 1015.6 |
| 20260507213037 | 72 | 0 | 0.0 | 5.0 | 0.00 | 0.00 | 0.00 | 53 | 1015.6 |
| 20260507212515 | 72 | 59 | 2.0 | 5.0 | 0.00 | 0.00 | 0.00 | 54 | 1015.7 |
| 20260507212018 | 72 | 0 | 0.0 | 3.0 | 0.00 | 0.00 | 0.00 | 53 | 1015.7 |
| 20260507211536 | 72 | 53 | 1.0 | 4.0 | 0.00 | 0.00 | 0.00 | 51 | 1015.7 |
| 20260507211017 | 72 | 66 | 0.0 | 6.0 | 0.00 | 0.00 | 0.00 | 53 | 1015.9 |
| 20260507210515 | 72 | 69 | 2.0 | 6.0 | 0.00 | 0.00 | 0.00 | 51 | 1015.9 |
| 20260507210105 | 72 | 39 | 1.0 | 6.0 | 0.00 | 0.00 | 0.00 | 53 | 1015.9 |
| 20260507205518 | 72 | 0 | 1.0 | 7.0 | 0.00 | 0.00 | 0.00 | 53 | 1016.0 |
| 20260507205018 | 72 | 15 | 2.0 | 7.0 | 0.00 | 0.00 | 0.00 | 53 | 1015.9 |
| 20260507204535 | 72 | 32 | 2.0 | 8.0 | 0.00 | 0.00 | 0.00 | 53 | 1015.9 |
| 20260507204017 | 72 | 323 | 3.0 | 8.0 | 0.00 | 0.00 | 0.00 | 53 | 1016.0 |
| 20260507203520 | 72 | 11 | 3.0 | 8.0 | 0.00 | 0.00 | 0.00 | 53 | 1015.9 |
| 20260507203042 | 72 | 0 | 1.0 | 7.0 | 0.00 | 0.00 | 0.00 | 50 | 1016.0 |
| 20260507202523 | 72 | 322 | 1.0 | 6.0 | 0.00 | 0.00 | 0.00 | 52 | 1016.1 |
| 20260507202020 | 71 | 316 | 0.0 | 7.0 | 0.00 | 0.00 | 0.00 | 52 | 1016.2 |
| 20260507201540 | 71 | 315 | 1.0 | 7.0 | 0.00 | 0.00 | 0.00 | 52 | 1016.4 |
| 20260507201025 | 71 | 261 | 3.0 | 7.0 | 0.00 | 0.00 | 0.00 | 50 | 1016.5 |
| 20260507200520 | 71 | 301 | 1.0 | 7.0 | 0.00 | 0.00 | 0.00 | 52 | 1016.5 |
| 20260507200051 | 71 | 269 | 2.0 | 6.0 | 0.00 | 0.00 | 0.00 | 51 | 1016.6 |
| 20260507195518 | 71 | 282 | 2.0 | 6.0 | 0.00 | 0.00 | 0.00 | 52 | 1016.8 |
| 20260507195021 | 71 | 283 | 2.0 | 8.0 | 0.00 | 0.00 | 0.00 | 52 | 1016.8 |
| 20260507194542 | 71 | 323 | 3.0 | 10.0 | 0.00 | 0.00 | 0.00 | 54 | 1016.7 |
| 20260507194019 | 71 | 22 | 3.0 | 10.0 | 0.00 | 0.00 | 0.00 | 53 | 1016.8 |
| 20260507193523 | 71 | 304 | 1.0 | 7.0 | 0.00 | 0.00 | 0.00 | 54 | 1016.9 |
| 20260507193105 | 71 | 226 | 2.0 | 7.0 | 0.00 | 0.00 | 0.00 | 53 | 1017.1 |
| 20260507192520 | 71 | 289 | 1.0 | 7.0 | 0.00 | 0.00 | 0.00 | 56 | 1017.1 |
| 20260507192018 | 70 | 0 | 2.0 | 6.0 | 0.00 | 0.00 | 0.00 | 52 | 1017.2 |
| 20260507191547 | 70 | 350 | 0.0 | 9.0 | 0.00 | 0.00 | 0.00 | 55 | 1017.3 |
| 20260507191020 | 70 | 277 | 2.0 | 9.0 | 0.00 | 0.00 | 0.00 | 52 | 1017.5 |
| 20260507190518 | 70 | 314 | 1.0 | 10.0 | 0.00 | 0.00 | 0.00 | 55 | 1017.5 |
| 20260507190040 | 70 | 277 | 3.0 | 10.0 | 0.00 | 0.00 | 0.00 | 53 | 1017.4 |
| 20260507185518 | 70 | 5 | 3.0 | 10.0 | 0.00 | 0.00 | 0.00 | 55 | 1017.4 |
| 20260507185019 | 70 | 355 | 2.0 | 8.0 | 0.00 | 0.00 | 0.00 | 54 | 1017.5 |
| 20260507184535 | 70 | 334 | 3.0 | 8.0 | 0.00 | 0.00 | 0.00 | 57 | 1017.5 |
| 20260507184019 | 70 | 355 | 3.0 | 9.0 | 0.00 | 0.00 | 0.00 | 55 | 1017.6 |
| 20260507183523 | 70 | 277 | 2.0 | 9.0 | 0.00 | 0.00 | 0.00 | 52 | 1017.7 |
| 20260507183039 | 70 | 14 | 2.0 | 8.0 | 0.00 | 0.00 | 0.00 | 54 | 1017.7 |
| 20260507182519 | 69 | 277 | 4.0 | 10.0 | 0.00 | 0.00 | 0.00 | 56 | 1017.8 |
| 20260507182021 | 69 | 267 | 2.0 | 10.0 | 0.00 | 0.00 | 0.00 | 53 | 1017.9 |
| 20260507181540 | 69 | 330 | 3.0 | 9.0 | 0.00 | 0.00 | 0.00 | 57 | 1017.8 |
| 20260507181024 | 69 | 342 | 2.0 | 11.0 | 0.00 | 0.00 | 0.00 | 54 | 1018.1 |
| 20260507180520 | 69 | 324 | 3.0 | 11.0 | 0.00 | 0.00 | 0.00 | 54 | 1018.0 |
| 20260507180041 | 69 | 323 | 6.0 | 11.0 | 0.00 | 0.00 | 0.00 | 54 | 1018.2 |
| 20260507175519 | 69 | 355 | 4.0 | 11.0 | 0.00 | 0.00 | 0.00 | 55 | 1018.4 |
| 20260507175021 | 68 | 280 | 1.0 | 10.0 | 0.00 | 0.00 | 0.00 | 54 | 1018.5 |
| 20260507174538 | 68 | 20 | 3.0 | 11.0 | 0.00 | 0.00 | 0.00 | 54 | 1018.6 |
| 20260507174019 | 68 | 329 | 4.0 | 11.0 | 0.00 | 0.00 | 0.00 | 54 | 1018.8 |
| 20260507173520 | 68 | 5 | 4.0 | 9.0 | 0.00 | 0.00 | 0.00 | 56 | 1018.9 |
| 20260507173036 | 68 | 311 | 1.0 | 8.0 | 0.00 | 0.00 | 0.00 | 58 | 1019.1 |
| 20260507172519 | 68 | 271 | 2.0 | 8.0 | 0.00 | 0.00 | 0.00 | 54 | 1019.1 |
| 20260507172018 | 68 | 5 | 2.0 | 8.0 | 0.00 | 0.00 | 0.00 | 54 | 1019.2 |
| 20260507171535 | 68 | 306 | 3.0 | 9.0 | 0.00 | 0.00 | 0.00 | 54 | 1019.3 |
| 20260507171022 | 68 | 350 | 2.0 | 9.0 | 0.00 | 0.00 | 0.00 | 54 | 1019.4 |
| 20260507170517 | 67 | 323 | 2.0 | 11.0 | 0.00 | 0.00 | 0.00 | 58 | 1019.4 |
| 20260507170047 | 67 | 344 | 3.0 | 11.0 | 0.00 | 0.00 | 0.00 | 57 | 1019.4 |
| 20260507165519 | 67 | 348 | 3.0 | 11.0 | 0.00 | 0.00 | 0.00 | 56 | 1019.6 |
| 20260507165022 | 67 | 294 | 2.0 | 6.0 | 0.00 | 0.00 | 0.00 | 57 | 1019.6 |
| 20260507164543 | 67 | 355 | 2.0 | 10.0 | 0.00 | 0.00 | 0.00 | 59 | 1019.7 |
| 20260507164021 | 67 | 297 | 1.0 | 10.0 | 0.00 | 0.00 | 0.00 | 58 | 1019.7 |
| 20260507163519 | 66 | 240 | 4.0 | 10.0 | 0.00 | 0.00 | 0.00 | 60 | 1019.6 |
| 20260507163040 | 66 | 0 | 1.0 | 10.0 | 0.00 | 0.00 | 0.00 | 60 | 1019.6 |
| 20260507162518 | 66 | 21 | 3.0 | 10.0 | 0.00 | 0.00 | 0.00 | 61 | 1019.7 |
| 20260507162021 | 65 | 303 | 1.0 | 6.0 | 0.00 | 0.00 | 0.00 | 60 | 1019.8 |
| 20260507161539 | 65 | 305 | 2.0 | 6.0 | 0.00 | 0.00 | 0.00 | 62 | 1019.9 |
| 20260507161019 | 65 | 258 | 0.0 | 4.0 | 0.00 | 0.00 | 0.00 | 62 | 1019.9 |
| 20260507160518 | 64 | 323 | 2.0 | 7.0 | 0.00 | 0.00 | 0.00 | 63 | 1019.8 |
| 20260507160057 | 64 | 329 | 1.0 | 9.0 | 0.00 | 0.00 | 0.00 | 64 | 1019.9 |
| 20260507155521 | 64 | 297 | 3.0 | 9.0 | 0.00 | 0.00 | 0.00 | 63 | 1019.9 |
| 20260507155020 | 64 | 311 | 1.0 | 6.0 | 0.00 | 0.00 | 0.00 | 64 | 1019.9 |
| 20260507154541 | 63 | 0 | 1.0 | 9.0 | 0.00 | 0.00 | 0.00 | 63 | 1019.9 |
| 20260507154021 | 63 | 27 | 2.0 | 9.0 | 0.00 | 0.00 | 0.00 | 65 | 1020.0 |
| 20260507153519 | 63 | 348 | 3.0 | 9.0 | 0.00 | 0.00 | 0.00 | 65 | 1020.0 |
| 20260507153043 | 62 | 9 | 3.0 | 5.0 | 0.00 | 0.00 | 0.00 | 66 | 1020.1 |
| 20260507152520 | 62 | 333 | 2.0 | 5.0 | 0.00 | 0.00 | 0.00 | 67 | 1020.2 |
| 20260507152020 | 62 | 336 | 0.0 | 4.0 | 0.00 | 0.00 | 0.00 | 69 | 1020.2 |
| 20260507151542 | 62 | 0 | 0.0 | 6.0 | 0.00 | 0.00 | 0.00 | 68 | 1020.3 |
| 20260507151019 | 62 | 0 | 0.0 | 6.0 | 0.00 | 0.00 | 0.00 | 69 | 1020.3 |
| 20260507150518 | 62 | 316 | 1.0 | 6.0 | 0.00 | 0.00 | 0.00 | 69 | 1020.2 |
| 20260507150037 | 61 | 322 | 2.0 | 6.0 | 0.00 | 0.00 | 0.00 | 71 | 1020.2 |
| 20260507145517 | 61 | 337 | 2.0 | 9.0 | 0.00 | 0.00 | 0.00 | 71 | 1020.3 |
| 20260507145019 | 60 | 323 | 2.0 | 9.0 | 0.00 | 0.00 | 0.00 | 73 | 1020.4 |
| 20260507144550 | 60 | 348 | 2.0 | 6.0 | 0.00 | 0.00 | 0.00 | 72 | 1020.5 |
| 20260507144023 | 60 | 342 | 1.0 | 6.0 | 0.00 | 0.00 | 0.00 | 73 | 1020.6 |
| 20260507143519 | 60 | 0 | 0.0 | 4.0 | 0.00 | 0.00 | 0.00 | 74 | 1020.6 |
| 20260507143044 | 59 | 355 | 0.0 | 5.0 | 0.00 | 0.00 | 0.00 | 74 | 1020.6 |
| 20260507142520 | 59 | 0 | 1.0 | 5.0 | 0.00 | 0.00 | 0.00 | 76 | 1020.7 |
| 20260507142019 | 59 | 343 | 2.0 | 5.0 | 0.00 | 0.00 | 0.00 | 75 | 1020.7 |
| 20260507141541 | 58 | 304 | 1.0 | 4.0 | 0.00 | 0.00 | 0.00 | 77 | 1020.7 |